Location: Lecco
(45.8566°N, 9.3977°E)
Time: 17:51:48
(UTC+02:00)

S-56A Canister/Altair - Pass Details

Date: 27 July 2019
Orbit: 633 x 2499 km, 38.9° (Epoch: 22 August)

Event Time Altitude Azimuth Distance (km) Brightness Sun altitude
Rises 06:32:32 0° 232° (SW) 4,397 10.8 4.4°
Reaches altitude 10° 06:35:13 10° 227° (SW) 3,651 10.4 4.8°
Maximum altitude 06:44:36 50° 156° (SSE) 2,372 10.2 6.3°
Drops below altitude 10° 06:57:40 10° 87° (E) 5,006 13.6 8.5°
Sets 07:02:01 0° 83° (E) 6,126 14.1 9.2°
